Location: *
(50.6089°N, 2.2719°E)
Time: 10:13:12
(UTC+00:00)

Nadezhda 3 Rocket - Pass Details

Date: 18 October 2019
Orbit: 957 x 999 km, 82.9° (Epoch: 19 November)

Event Time Altitude Azimuth Distance (km) Brightness Sun altitude
Rises 17:41:52 0° 188° (S) 3,673 7.2 -8.4°
Reaches altitude 10° 17:44:21 10° 189° (S) 2,735 6.5 -8.8°
Maximum altitude 17:50:40 87° 279° (W) 1,001 4.1 -9.8°
Drops below altitude 10° 17:57:04 10° 9° (N) 2,777 6.3 -10.8°
Sets 17:59:37 0° 10° (N) 3,733 6.9 -11.2°
